ONEWEB-0081, 45429

Orbit data source: Space-Track

ONEWEB-0081, 45429 is a payload satellite owned by One Web (UK) in LEO that was launched on Sat, 21 Mar 2020 UTC via a SOYUZ-2-1B launch vehicle from the Tyuratam Missile And Space Complex (TTMTR). Payload-class satellites include a variety of spacecraft equipped with specific instruments for various scientific and technological missions. These include communications satellites like Starlink; space stations such as the ISS; scientific satellites like the Hubble; Earth observation satellites from companies like Planet Labs, Umbra, and HawkEye 360; GPS; miniature CubeSats for education and research; and military/defense satellites.

Loading next visibility...
Identifier
45429, 2020-020F
Orbit
LEO
Country
Flag of UKUK
Related business
Manufacturer
One Web
Mission
Operational Commercial Communications
Bus & Motor
ARROW, Unknown motor
Mass
148 kg wet, ~140 kg dry
Launch date (UTC)
2020-03-21 (6 years ago)
Launch vehicle
SOYUZ-2-1B
Launch site
Tyuratam Missile And Space Complex (TTMTR)
Object type
Payload
Rocket body
Debris
Shape & HBR
Trap Box + 2 Pan, 6.7 m
Radar Cross Section
3.464 m², Medium (>0.1 m² and < 1m²)

Expand to show TLE details & history
Last TLE update: 18 hours ago

TLE from 18 hours ago
0 ONEWEB-0081
1 45429U 20020F   25286.78781468  .00000637  00000-0  17618-2 0  9991
2 45429  87.8819  70.1332 0001413  94.8501 265.2788 13.11417374270446
Epoch: 2025-10-13T18:54Z
TLE epoch observation values (Epoch: 2025-10-13T18:54:27.188Z)
Latitude
-0.00004°
Longitude
123.93434°
Altitude
1,220.659 km
Speed
7.244 km/s
True Right ascension
04h 40m 31s
True Declination
0° 00' 00"
Sunlit
Object was in full shadow at epoch
Visualization orbit readout
Latitude
Unknown
Longitude
Unknown
Altitude
Unknown
Speed
Unknown
Apparent Right ascension
Unknown
Apparent Declination
Unknown
Sunlit
N/A
Visualization observer readout
Local Sidereal Time
07:01:26
Azimuth
Unknown
Elevation
Unknown
Doppler factor
Unknown
Orbital elements
Apogee altitude
1,215.872 km
Perigee altitude
1,213.726 km
Semi-major axis
7,592.936 km
Eccentricity
0.00014
Inclination
87.8819°
RAAN
70.1332°
Arg. of periapsis
94.8501°
True anomaly
265.26266°
Mean anomaly
265.2788°
Eccentric anomaly
265.27073°
Mean motion
3.28041 °/min
Orbital period
109.74 mins
BSTAR
0.0017618
Loading maneuver chart data...
Computing Atmospheric mass density...
Loading historical data...
Loading historical data...
Loading historical data...
Loading historical data...
Loading historical data...
Loading historical data...
Loading historical data...

Documentation

Showing up to 5 results
|